Time,TemperatureF,DewpointF,PressureIn,WindDirection,WindDirectionDegrees,WindSpeedMPH,WindSpeedGustMPH,Humidity,HourlyPrecipIn,Conditions,Clouds,dailyrainin,SoftwareType,DateUTC
2013-04-24 00:03:00,51.4,20.3,29.12,North,351,0.0,0.0,29,0.00,,---,0.00,VWS V14.01,2013-04-24 07:03:00,
2013-04-24 00:08:00,50.0,19.8,29.12,North,351,0.0,0.0,30,0.00,,---,0.00,VWS V14.01,2013-04-24 07:08:00,
2013-04-24 00:13:00,49.3,22.1,29.12,North,351,0.0,0.0,34,0.00,,---,0.00,VWS V14.01,2013-04-24 07:13:00,
2013-04-24 00:18:00,48.7,20.9,29.12,North,351,0.0,0.0,33,0.00,,---,0.00,VWS V14.01,2013-04-24 07:18:00,
2013-04-24 00:23:00,48.4,21.3,29.12,North,351,0.0,0.0,34,0.00,,---,0.00,VWS V14.01,2013-04-24 07:23:00,
2013-04-24 00:28:00,48.2,21.9,29.12,North,351,0.0,0.0,35,0.00,,---,0.00,VWS V14.01,2013-04-24 07:28:00,
2013-04-24 00:33:00,48.4,22.7,29.12,North,351,0.0,0.0,36,0.00,,---,0.00,VWS V14.01,2013-04-24 07:33:00,
2013-04-24 00:38:00,48.4,23.3,29.12,North,351,0.0,0.0,37,0.00,,---,0.00,VWS V14.01,2013-04-24 07:38:00,
2013-04-24 00:43:00,48.7,24.3,29.12,North,351,0.0,0.0,38,0.00,,---,0.00,VWS V14.01,2013-04-24 07:43:00,
2013-04-24 00:48:00,48.7,23.6,29.12,North,351,0.0,0.0,37,0.00,,---,0.00,VWS V14.01,2013-04-24 07:48:00,
2013-04-24 00:53:00,49.8,24.6,29.12,North,351,0.0,0.0,37,0.00,,---,0.00,VWS V14.01,2013-04-24 07:53:00,
2013-04-24 00:58:00,50.0,24.1,29.12,North,351,0.0,0.0,36,0.00,,---,0.00,VWS V14.01,2013-04-24 07:58:00,
2013-04-24 01:03:00,50.2,24.3,29.12,North,351,0.0,0.0,36,0.00,,---,0.00,VWS V14.01,2013-04-24 08:03:00,
2013-04-24 01:08:00,50.2,22.9,29.12,North,351,0.0,0.0,34,0.00,,---,0.00,VWS V14.01,2013-04-24 08:08:00,
2013-04-24 01:13:00,49.6,22.4,29.12,North,351,0.0,0.0,34,0.00,,---,0.00,VWS V14.01,2013-04-24 08:13:00,
2013-04-24 01:18:00,49.5,22.3,29.12,North,351,0.0,0.0,34,0.00,,---,0.00,VWS V14.01,2013-04-24 08:18:00,
2013-04-24 01:23:00,49.1,22.6,29.12,North,351,0.0,0.0,35,0.00,,---,0.00,VWS V14.01,2013-04-24 08:23:00,
2013-04-24 01:28:00,49.1,22.0,29.12,North,351,0.0,0.0,34,0.00,,---,0.00,VWS V14.01,2013-04-24 08:28:00,
2013-04-24 01:33:00,49.1,21.3,29.12,North,351,0.0,0.0,33,0.00,,---,0.00,VWS V14.01,2013-04-24 08:33:00,
2013-04-24 01:38:00,48.9,21.1,29.12,North,351,0.0,0.0,33,0.00,,---,0.00,VWS V14.01,2013-04-24 08:38:00,
2013-04-24 01:43:00,48.6,20.8,29.12,North,351,0.0,0.0,33,0.00,,---,0.00,VWS V14.01,2013-04-24 08:43:00,
2013-04-24 01:48:00,47.8,20.1,29.12,North,351,0.0,0.0,33,0.00,,---,0.00,VWS V14.01,2013-04-24 08:48:00,
2013-04-24 01:53:00,48.4,21.3,29.12,NNE,30,0.0,0.0,34,0.00,,---,0.00,VWS V14.01,2013-04-24 08:53:00,
2013-04-24 01:58:00,49.3,20.7,29.12,NE,35,0.0,0.0,32,0.00,,---,0.00,VWS V14.01,2013-04-24 08:58:00,
2013-04-24 02:03:00,49.1,19.8,29.12,East,97,0.0,0.0,31,0.00,,---,0.00,VWS V14.01,2013-04-24 09:03:00,
2013-04-24 02:08:00,48.9,20.4,29.12,ESE,109,2.7,3.6,32,0.00,,---,0.00,VWS V14.01,2013-04-24 09:08:00,
2013-04-24 02:13:00,48.9,20.4,29.12,ESE,110,3.6,3.6,32,0.00,,---,0.00,VWS V14.01,2013-04-24 09:13:00,
2013-04-24 02:18:00,49.1,20.5,29.12,ESE,111,3.1,3.6,32,0.00,,---,0.00,VWS V14.01,2013-04-24 09:18:00,
2013-04-24 02:23:00,48.7,20.2,29.12,ESE,118,3.1,3.6,32,0.00,,---,0.00,VWS V14.01,2013-04-24 09:23:00,
2013-04-24 02:28:00,48.9,21.1,29.12,ESE,123,3.6,3.6,33,0.00,,---,0.00,VWS V14.01,2013-04-24 09:28:00,
2013-04-24 02:33:00,48.7,20.9,29.09,SE,124,2.7,3.6,33,0.00,,---,0.00,VWS V14.01,2013-04-24 09:33:00,
2013-04-24 02:38:00,48.4,20.6,29.09,SE,127,4.5,4.5,33,0.00,,---,0.00,VWS V14.01,2013-04-24 09:38:00,
2013-04-24 02:43:00,48.2,21.2,29.09,SE,133,4.0,4.9,34,0.00,,---,0.00,VWS V14.01,2013-04-24 09:43:00,
2013-04-24 02:48:00,48.7,22.3,29.09,SE,133,4.0,4.0,35,0.00,,---,0.00,VWS V14.01,2013-04-24 09:48:00,
2013-04-24 02:53:00,48.7,20.9,29.09,SE,133,3.1,3.6,33,0.00,,---,0.00,VWS V14.01,2013-04-24 09:53:00,
2013-04-24 02:58:00,48.4,21.3,29.09,SE,133,0.0,0.0,34,0.00,,---,0.00,VWS V14.01,2013-04-24 09:58:00,
2013-04-24 03:03:00,48.4,22.0,29.09,SE,133,0.0,0.0,35,0.00,,---,0.00,VWS V14.01,2013-04-24 10:03:00,
2013-04-24 03:08:00,48.6,22.2,29.09,SE,133,0.0,0.0,35,0.00,,---,0.00,VWS V14.01,2013-04-24 10:08:00,
2013-04-24 03:13:00,48.2,22.5,29.09,SE,133,0.0,0.0,36,0.00,,---,0.00,VWS V14.01,2013-04-24 10:13:00,
2013-04-24 03:18:00,47.7,20.7,29.09,ESE,107,0.0,3.1,34,0.00,,---,0.00,VWS V14.01,2013-04-24 10:18:00,
2013-04-24 03:23:00,47.1,22.2,29.09,ESE,107,0.0,0.0,37,0.00,,---,0.00,VWS V14.01,2013-04-24 10:23:00,
2013-04-24 03:28:00,45.5,19.5,29.09,North,351,3.1,4.5,35,0.00,,---,0.00,VWS V14.01,2013-04-24 10:28:00,
2013-04-24 03:33:00,43.9,19.3,29.09,North,351,0.0,0.0,37,0.00,,---,0.00,VWS V14.01,2013-04-24 10:33:00,
2013-04-24 03:38:00,45.9,27.3,29.09,ENE,66,3.6,4.0,48,0.00,,---,0.00,VWS V14.01,2013-04-24 10:38:00,
2013-04-24 03:43:00,47.7,25.7,29.09,ESE,105,3.1,3.6,42,0.00,,---,0.00,VWS V14.01,2013-04-24 10:43:00,
2013-04-24 03:48:00,47.7,24.5,29.09,ESE,107,4.5,4.5,40,0.00,,---,0.00,VWS V14.01,2013-04-24 10:48:00,
2013-04-24 03:53:00,47.7,23.9,29.09,ESE,109,3.6,4.0,39,0.00,,---,0.00,VWS V14.01,2013-04-24 10:53:00,
2013-04-24 03:58:00,47.5,23.8,29.09,ESE,109,0.0,0.0,39,0.00,,---,0.00,VWS V14.01,2013-04-24 10:58:00,
2013-04-24 04:03:00,46.4,22.2,29.09,ESE,109,0.0,0.0,38,0.00,,---,0.00,VWS V14.01,2013-04-24 11:03:00,
2013-04-24 04:08:00,44.6,20.6,29.09,ESE,109,0.0,0.0,38,0.00,,---,0.00,VWS V14.01,2013-04-24 11:08:00,
2013-04-24 04:13:00,44.1,20.7,29.09,ESE,109,0.0,0.0,39,0.00,,---,0.00,VWS V14.01,2013-04-24 11:13:00,
2013-04-24 04:18:00,43.7,21.0,29.09,ESE,109,0.0,0.0,40,0.00,,---,0.00,VWS V14.01,2013-04-24 11:18:00,
2013-04-24 04:23:00,43.5,21.4,29.09,ESE,109,0.0,0.0,41,0.00,,---,0.00,VWS V14.01,2013-04-24 11:23:00,
2013-04-24 04:28:00,43.5,24.1,29.09,NE,54,0.0,0.0,46,0.00,,---,0.00,VWS V14.01,2013-04-24 11:28:00,
2013-04-24 04:33:00,42.3,21.9,29.09,NNE,28,0.0,0.0,44,0.00,,---,0.00,VWS V14.01,2013-04-24 11:33:00,
2013-04-24 04:38:00,42.6,24.8,29.09,NNE,28,0.0,0.0,49,0.00,,---,0.00,VWS V14.01,2013-04-24 11:38:00,
2013-04-24 04:43:00,44.4,29.7,29.09,NNE,28,0.0,0.0,56,0.00,,---,0.00,VWS V14.01,2013-04-24 11:43:00,
2013-04-24 04:48:00,44.4,29.3,29.09,NNE,28,0.0,0.0,55,0.00,,---,0.00,VWS V14.01,2013-04-24 11:48:00,
2013-04-24 04:53:00,43.5,27.1,29.09,NNE,28,0.0,0.0,52,0.00,,---,0.00,VWS V14.01,2013-04-24 11:53:00,
2013-04-24 04:59:00,45.1,31.7,29.09,East,92,0.0,3.1,59,0.00,,---,0.00,VWS V14.01,2013-04-24 11:59:00,
2013-04-24 05:04:00,44.8,30.5,29.09,East,92,0.0,0.0,57,0.00,,---,0.00,VWS V14.01,2013-04-24 12:04:00,
2013-04-24 05:09:00,44.4,29.3,29.09,East,92,3.1,3.6,55,0.00,,---,0.00,VWS V14.01,2013-04-24 12:09:00,
2013-04-24 05:14:00,45.9,31.9,29.09,SE,132,5.8,6.3,58,0.00,,---,0.00,VWS V14.01,2013-04-24 12:14:00,
2013-04-24 05:19:00,46.2,30.0,29.09,ESE,113,3.1,3.6,53,0.00,,---,0.00,VWS V14.01,2013-04-24 12:19:00,
2013-04-24 05:24:00,46.8,29.6,29.09,SE,127,3.1,4.5,51,0.00,,---,0.00,VWS V14.01,2013-04-24 12:24:00,
2013-04-24 05:29:00,46.8,28.6,29.09,ESE,110,0.0,0.0,49,0.00,,---,0.00,VWS V14.01,2013-04-24 12:29:00,
2013-04-24 05:34:00,46.9,27.3,29.09,ESE,112,0.0,3.6,46,0.00,,---,0.00,VWS V14.01,2013-04-24 12:34:00,
2013-04-24 05:39:00,47.1,25.2,29.09,ESE,108,0.0,0.0,42,0.00,,---,0.00,VWS V14.01,2013-04-24 12:39:00,
2013-04-24 05:44:00,46.4,22.8,29.09,SE,138,0.0,3.1,39,0.00,,---,0.00,VWS V14.01,2013-04-24 12:44:00,
2013-04-24 05:49:00,44.4,21.0,29.09,NNW,340,0.0,5.8,39,0.00,,---,0.00,VWS V14.01,2013-04-24 12:49:00,
2013-04-24 05:54:00,42.4,21.0,29.09,NNW,329,4.5,4.9,42,0.00,,---,0.00,VWS V14.01,2013-04-24 12:54:00,
2013-04-24 05:59:00,42.3,24.5,29.09,NW,324,4.9,4.9,49,0.00,,---,0.00,VWS V14.01,2013-04-24 12:59:00,
2013-04-24 06:04:00,42.3,25.9,29.09,NNW,336,4.9,5.8,52,0.00,,---,0.00,VWS V14.01,2013-04-24 13:04:00,
2013-04-24 06:09:00,42.3,25.9,29.09,North,351,0.0,0.0,52,0.00,,---,0.00,VWS V14.01,2013-04-24 13:09:00,
2013-04-24 06:14:00,42.1,25.7,29.09,North,351,0.0,0.0,52,0.00,,---,0.00,VWS V14.01,2013-04-24 13:14:00,
2013-04-24 06:19:00,42.1,25.7,29.09,North,351,0.0,0.0,52,0.00,,---,0.00,VWS V14.01,2013-04-24 13:19:00,
2013-04-24 06:24:00,42.4,26.5,29.09,North,351,0.0,0.0,53,0.00,,---,0.00,VWS V14.01,2013-04-24 13:24:00,
2013-04-24 06:29:00,42.8,27.3,29.09,North,351,0.0,0.0,54,0.00,,---,0.00,VWS V14.01,2013-04-24 13:29:00,
2013-04-24 06:35:00,42.8,26.9,29.09,North,351,0.0,0.0,53,0.00,,---,0.00,VWS V14.01,2013-04-24 13:35:00,
2013-04-24 06:40:00,42.8,26.9,29.09,North,351,0.0,0.0,53,0.00,,---,0.00,VWS V14.01,2013-04-24 13:40:00,
2013-04-24 06:45:00,43.2,26.7,29.09,North,351,0.0,0.0,52,0.00,,---,0.00,VWS V14.01,2013-04-24 13:45:00,
2013-04-24 06:50:00,44.2,27.7,29.09,North,351,0.0,0.0,52,0.00,,---,0.00,VWS V14.01,2013-04-24 13:50:00,
2013-04-24 06:55:00,47.8,31.1,29.09,NW,312,4.0,4.0,52,0.00,,---,0.00,VWS V14.01,2013-04-24 13:55:00,
2013-04-24 07:00:00,50.4,29.8,29.09,WNW,301,3.1,3.6,45,0.00,,---,0.00,VWS V14.01,2013-04-24 14:00:00,
2013-04-24 07:05:00,49.5,23.6,29.09,WNW,301,0.0,0.0,36,0.00,,---,0.00,VWS V14.01,2013-04-24 14:05:00,
2013-04-24 07:10:00,48.6,23.5,29.09,WNW,301,0.0,0.0,37,0.00,,---,0.00,VWS V14.01,2013-04-24 14:10:00,
2013-04-24 07:15:00,48.0,23.0,29.09,WNW,301,0.0,0.0,37,0.00,,---,0.00,VWS V14.01,2013-04-24 14:15:00,
2013-04-24 07:20:00,48.4,24.0,29.09,WNW,301,0.0,0.0,38,0.00,,---,0.00,VWS V14.01,2013-04-24 14:20:00,
2013-04-24 07:25:00,48.9,24.5,29.09,WNW,301,0.0,0.0,38,0.00,,---,0.00,VWS V14.01,2013-04-24 14:25:00,
2013-04-24 07:30:00,50.0,25.4,29.09,WNW,301,0.0,0.0,38,0.00,,---,0.00,VWS V14.01,2013-04-24 14:30:00,
2013-04-24 07:35:00,51.3,25.9,29.12,WNW,301,0.0,0.0,37,0.00,,---,0.00,VWS V14.01,2013-04-24 14:35:00,
2013-04-24 07:40:00,52.0,25.9,29.12,WNW,301,0.0,0.0,36,0.00,,---,0.00,VWS V14.01,2013-04-24 14:40:00,
2013-04-24 07:45:00,53.1,26.1,29.12,WNW,301,0.0,0.0,35,0.00,,---,0.00,VWS V14.01,2013-04-24 14:45:00,
2013-04-24 07:50:00,54.3,25.9,29.12,WNW,301,0.0,0.0,33,0.00,,---,0.00,VWS V14.01,2013-04-24 14:50:00,
2013-04-24 07:56:00,55.4,24.5,29.12,WNW,301,0.0,0.0,30,0.00,,---,0.00,VWS V14.01,2013-04-24 14:56:00,
2013-04-24 08:01:00,55.8,23.2,29.12,WNW,301,0.0,0.0,28,0.00,,---,0.00,VWS V14.01,2013-04-24 15:01:00,
2013-04-24 08:10:00,56.7,22.2,29.12,WNW,301,0.0,0.0,26,0.00,,---,0.00,VWS V14.01,2013-04-24 15:10:00,
2013-04-24 08:15:00,57.2,21.7,29.12,WNW,301,0.0,0.0,25,0.00,,---,0.00,VWS V14.01,2013-04-24 15:15:00,
2013-04-24 08:20:00,57.7,22.2,29.09,NNW,331,0.0,0.0,25,0.00,,---,0.00,VWS V14.01,2013-04-24 15:20:00,
2013-04-24 08:25:00,58.1,21.5,29.09,NNW,342,0.0,0.0,24,0.00,,---,0.00,VWS V14.01,2013-04-24 15:25:00,
2013-04-24 08:30:00,58.8,22.1,29.09,North,11,0.0,0.0,24,0.00,,---,0.00,VWS V14.01,2013-04-24 15:30:00,
2013-04-24 08:35:00,60.1,23.2,29.12,North,11,0.0,0.0,24,0.00,,---,0.00,VWS V14.01,2013-04-24 15:35:00,
2013-04-24 08:40:00,61.0,20.8,29.12,SW,221,3.6,3.6,21,0.00,,---,0.00,VWS V14.01,2013-04-24 15:40:00,
2013-04-24 08:45:00,61.7,21.4,29.12,SSW,205,4.0,4.0,21,0.00,,---,0.00,VWS V14.01,2013-04-24 15:45:00,
2013-04-24 08:50:00,61.9,21.5,29.09,SSW,213,0.0,0.0,21,0.00,,---,0.00,VWS V14.01,2013-04-24 15:50:00,
2013-04-24 08:55:00,62.2,21.9,29.09,SW,225,3.6,3.6,21,0.00,,---,0.00,VWS V14.01,2013-04-24 15:55:00,
2013-04-24 09:00:00,64.2,19.9,29.09,SW,223,3.1,3.6,18,0.00,,---,0.00,VWS V14.01,2013-04-24 16:00:00,
2013-04-24 09:05:00,64.4,20.0,29.09,SSW,207,2.7,4.9,18,0.00,,---,0.00,VWS V14.01,2013-04-24 16:05:00,
2013-04-24 09:10:00,64.9,20.4,29.09,South,179,0.0,4.5,18,0.00,,---,0.00,VWS V14.01,2013-04-24 16:10:00,
2013-04-24 09:15:00,65.1,20.6,29.09,SSW,192,3.1,5.8,18,0.00,,---,0.00,VWS V14.01,2013-04-24 16:15:00,
2013-04-24 09:20:00,66.2,20.1,29.09,SW,222,3.1,4.5,17,0.00,,---,0.00,VWS V14.01,2013-04-24 16:20:00,
2013-04-24 09:25:00,66.9,17.8,29.09,SSW,202,2.7,4.9,15,0.00,,---,0.00,VWS V14.01,2013-04-24 16:25:00,
2013-04-24 09:30:00,68.9,17.8,29.09,SW,227,0.0,0.0,14,0.00,,---,0.00,VWS V14.01,2013-04-24 16:30:00,
2013-04-24 09:35:00,68.7,19.2,29.09,SE,136,2.7,4.0,15,0.00,,---,0.00,VWS V14.01,2013-04-24 16:35:00,
2013-04-24 09:40:00,69.6,18.4,29.09,WSW,245,4.0,4.0,14,0.00,,---,0.00,VWS V14.01,2013-04-24 16:40:00,
2013-04-24 09:45:00,70.9,19.4,29.09,West,260,4.0,6.7,14,0.00,,---,0.00,VWS V14.01,2013-04-24 16:45:00,
2013-04-24 09:50:00,71.4,19.8,29.09,WNW,287,5.4,5.8,14,0.00,,---,0.00,VWS V14.01,2013-04-24 16:50:00,
2013-04-24 09:55:00,70.3,18.9,29.09,SE,128,0.0,4.0,14,0.00,,---,0.00,VWS V14.01,2013-04-24 16:55:00,
2013-04-24 10:00:00,72.1,20.4,29.09,West,277,5.4,6.7,14,0.00,,---,0.00,VWS V14.01,2013-04-24 17:00:00,
2013-04-24 10:05:00,72.7,19.0,29.09,NW,311,0.0,4.5,13,0.00,,---,0.00,VWS V14.01,2013-04-24 17:05:00,
2013-04-24 10:10:00,73.2,19.5,29.09,West,266,7.4,7.4,13,0.00,,---,0.00,VWS V14.01,2013-04-24 17:10:00,
2013-04-24 10:15:00,74.3,20.3,29.09,South,175,4.5,7.4,13,0.00,,---,0.00,VWS V14.01,2013-04-24 17:15:00,
2013-04-24 10:20:00,74.5,20.5,29.09,NW,307,5.4,7.4,13,0.00,,---,0.00,VWS V14.01,2013-04-24 17:20:00,
2013-04-24 10:25:00,75.0,20.9,29.09,West,274,3.6,5.8,13,0.00,,---,0.00,VWS V14.01,2013-04-24 17:25:00,
2013-04-24 10:30:00,75.7,21.5,29.09,WSW,248,4.9,5.8,13,0.00,,---,0.00,VWS V14.01,2013-04-24 17:30:00,
2013-04-24 10:35:00,76.8,22.3,29.09,WNW,289,3.6,7.4,13,0.00,,---,0.00,VWS V14.01,2013-04-24 17:35:00,
2013-04-24 10:41:00,77.2,22.6,29.09,NW,314,3.1,4.9,13,0.00,,---,0.00,VWS V14.01,2013-04-24 17:41:00,
2013-04-24 10:46:00,77.2,22.6,29.09,WSW,245,3.6,7.4,13,0.00,,---,0.00,VWS V14.01,2013-04-24 17:46:00,
2013-04-24 10:51:00,76.8,22.3,29.09,SSW,208,0.0,4.0,13,0.00,,---,0.00,VWS V14.01,2013-04-24 17:51:00,
2013-04-24 10:56:00,77.9,21.2,29.09,East,86,0.0,4.9,12,0.00,,---,0.00,VWS V14.01,2013-04-24 17:56:00,
2013-04-24 11:01:00,79.3,22.4,29.09,WNW,295,8.3,8.3,12,0.00,,---,0.00,VWS V14.01,2013-04-24 18:01:00,
2013-04-24 11:07:00,79.3,22.4,29.09,WSW,256,4.5,4.5,12,0.00,,---,0.00,VWS V14.01,2013-04-24 18:07:00,
2013-04-24 11:12:00,78.3,21.5,29.09,SSW,202,4.9,7.4,12,0.00,,---,0.00,VWS V14.01,2013-04-24 18:12:00,
2013-04-24 11:17:00,77.7,23.0,29.09,NW,323,6.7,8.3,13,0.00,,---,0.00,VWS V14.01,2013-04-24 18:17:00,
2013-04-24 11:22:00,78.6,21.8,29.09,WNW,287,7.8,8.3,12,0.00,,---,0.00,VWS V14.01,2013-04-24 18:22:00,
2013-04-24 11:27:00,80.6,23.4,29.09,WNW,301,5.8,10.5,12,0.00,,---,0.00,VWS V14.01,2013-04-24 18:27:00,
2013-04-24 11:32:00,80.8,23.5,29.09,West,275,3.1,4.5,12,0.00,,---,0.00,VWS V14.01,2013-04-24 18:32:00,
2013-04-24 11:37:00,80.4,23.2,29.06,SW,233,5.8,11.6,12,0.00,,---,0.00,VWS V14.01,2013-04-24 18:37:00,
2013-04-24 11:42:00,78.6,21.8,29.06,West,262,7.8,7.8,12,0.00,,---,0.00,VWS V14.01,2013-04-24 18:42:00,
2013-04-24 11:47:00,79.3,22.4,29.06,SW,214,5.8,6.3,12,0.00,,---,0.00,VWS V14.01,2013-04-24 18:47:00,
2013-04-24 11:52:00,81.1,23.8,29.06,SW,228,7.4,7.4,12,0.00,,---,0.00,VWS V14.01,2013-04-24 18:52:00,
2013-04-24 11:57:00,82.4,22.7,29.06,WNW,294,6.3,7.4,11,0.00,,---,0.00,VWS V14.01,2013-04-24 18:57:00,
2013-04-24 12:02:00,82.0,22.4,29.06,North,2,0.0,0.0,11,0.00,,---,0.00,VWS V14.01,2013-04-24 19:02:00,
2013-04-24 12:07:00,82.2,22.5,29.06,West,261,0.0,6.7,11,0.00,,---,0.00,VWS V14.01,2013-04-24 19:07:00,
2013-04-24 12:12:00,82.4,22.7,29.06,NW,313,6.9,6.9,11,0.00,,---,0.00,VWS V14.01,2013-04-24 19:12:00,
2013-04-24 12:17:00,82.6,22.8,29.06,West,271,5.8,11.0,11,0.00,,---,0.00,VWS V14.01,2013-04-24 19:17:00,
2013-04-24 12:22:00,81.0,23.6,29.06,SSW,202,3.1,6.9,12,0.00,,---,0.00,VWS V14.01,2013-04-24 19:22:00,
2013-04-24 12:27:00,80.6,23.4,29.06,West,259,6.7,14.3,12,0.00,,---,0.00,VWS V14.01,2013-04-24 19:27:00,
2013-04-24 12:32:00,81.0,23.6,29.06,SW,225,10.5,11.0,12,0.00,,---,0.00,VWS V14.01,2013-04-24 19:32:00,
2013-04-24 12:37:00,81.7,22.1,29.06,West,269,4.9,7.8,11,0.00,,---,0.00,VWS V14.01,2013-04-24 19:37:00,
2013-04-24 12:42:00,81.9,22.2,29.06,West,268,9.2,10.5,11,0.00,,---,0.00,VWS V14.01,2013-04-24 19:42:00,
2013-04-24 12:47:00,80.8,23.5,29.06,SW,229,9.2,9.6,12,0.00,,---,0.00,VWS V14.01,2013-04-24 19:47:00,
2013-04-24 12:52:00,82.6,22.8,29.06,WNW,287,6.7,9.6,11,0.00,,---,0.00,VWS V14.01,2013-04-24 19:52:00,
2013-04-24 12:57:00,82.8,23.0,29.06,WSW,258,9.2,11.0,11,0.00,,---,0.00,VWS V14.01,2013-04-24 19:57:00,
2013-04-24 13:02:00,82.8,23.0,29.06,WSW,258,6.3,9.6,11,0.00,,---,0.00,VWS V14.01,2013-04-24 20:02:00,
2013-04-24 13:07:00,83.3,23.4,29.06,West,259,7.8,10.1,11,0.00,,---,0.00,VWS V14.01,2013-04-24 20:07:00,
2013-04-24 13:12:00,81.3,23.9,29.06,SW,232,6.7,12.5,12,0.00,,---,0.00,VWS V14.01,2013-04-24 20:12:00,
2013-04-24 13:17:00,82.0,22.4,29.06,West,267,9.2,11.0,11,0.00,,---,0.00,VWS V14.01,2013-04-24 20:17:00,
2013-04-24 13:22:00,82.0,22.4,29.06,WNW,297,5.4,8.3,11,0.00,,---,0.00,VWS V14.01,2013-04-24 20:22:00,
2013-04-24 13:27:00,82.9,23.1,29.06,WNW,291,9.6,12.5,11,0.00,,---,0.00,VWS V14.01,2013-04-24 20:27:00,
2013-04-24 13:32:00,83.1,23.2,29.06,WNW,282,9.2,9.6,11,0.00,,---,0.00,VWS V14.01,2013-04-24 20:32:00,
2013-04-24 13:37:00,82.8,23.0,29.06,WNW,302,13.4,13.4,11,0.00,,---,0.00,VWS V14.01,2013-04-24 20:37:00,
2013-04-24 13:42:00,82.2,22.5,29.06,West,273,9.2,11.2,11,0.00,,---,0.00,VWS V14.01,2013-04-24 20:42:00,
2013-04-24 13:47:00,81.9,22.2,29.06,WSW,258,8.3,11.2,11,0.00,,---,0.00,VWS V14.01,2013-04-24 20:47:00,
2013-04-24 13:52:00,82.6,22.8,29.06,West,275,12.1,12.1,11,0.00,,---,0.00,VWS V14.01,2013-04-24 20:52:00,
2013-04-24 13:57:00,82.2,22.5,29.06,NW,312,8.3,11.6,11,0.00,,---,0.00,VWS V14.01,2013-04-24 20:57:00,
2013-04-24 14:02:00,81.9,22.2,29.06,SW,222,10.1,12.1,11,0.00,,---,0.00,VWS V14.01,2013-04-24 21:02:00,
2013-04-24 14:07:00,82.0,22.4,29.06,WSW,257,6.3,11.2,11,0.00,,---,0.00,VWS V14.01,2013-04-24 21:07:00,
2013-04-24 14:12:00,82.4,22.7,29.06,WNW,282,9.2,10.5,11,0.00,,---,0.00,VWS V14.01,2013-04-24 21:12:00,
2013-04-24 14:17:00,82.0,22.4,29.06,WSW,250,6.7,11.6,11,0.00,,---,0.00,VWS V14.01,2013-04-24 21:17:00,
2013-04-24 14:22:00,82.0,22.4,29.06,WSW,242,12.1,13.4,11,0.00,,---,0.00,VWS V14.01,2013-04-24 21:22:00,
2013-04-24 14:27:00,81.9,22.2,29.06,WSW,248,9.2,13.4,11,0.00,,---,0.00,VWS V14.01,2013-04-24 21:27:00,
2013-04-24 14:32:00,82.0,22.4,29.06,WNW,289,7.4,13.4,11,0.00,,---,0.00,VWS V14.01,2013-04-24 21:32:00,
2013-04-24 14:37:00,82.2,22.5,29.06,West,266,9.2,12.5,11,0.00,,---,0.00,VWS V14.01,2013-04-24 21:37:00,
2013-04-24 14:42:00,82.2,22.5,29.06,West,277,7.8,13.4,11,0.00,,---,0.00,VWS V14.01,2013-04-24 21:42:00,
2013-04-24 14:47:00,82.2,22.5,29.06,West,275,10.1,12.1,11,0.00,,---,0.00,VWS V14.01,2013-04-24 21:47:00,
2013-04-24 14:53:00,81.1,23.8,29.03,West,281,12.1,13.4,12,0.00,,---,0.00,VWS V14.01,2013-04-24 21:53:00,
2013-04-24 14:58:00,81.5,24.0,29.03,WSW,258,11.2,11.2,12,0.00,,---,0.00,VWS V14.01,2013-04-24 21:58:00,
2013-04-24 15:03:00,81.3,23.9,29.03,West,278,12.1,13.9,12,0.00,,---,0.00,VWS V14.01,2013-04-24 22:03:00,
2013-04-24 15:08:00,80.4,23.2,29.03,SW,214,9.2,12.1,12,0.00,,---,0.00,VWS V14.01,2013-04-24 22:08:00,
2013-04-24 15:13:00,80.2,23.1,29.03,WSW,257,12.1,14.8,12,0.00,,---,0.00,VWS V14.01,2013-04-24 22:13:00,
2013-04-24 15:18:00,80.4,23.2,29.03,West,271,10.5,11.6,12,0.00,,---,0.00,VWS V14.01,2013-04-24 22:18:00,
2013-04-24 15:23:00,79.9,22.8,29.03,West,273,9.2,13.0,12,0.00,,---,0.00,VWS V14.01,2013-04-24 22:23:00,
2013-04-24 15:28:00,79.3,22.4,29.03,West,268,10.5,13.9,12,0.00,,---,0.00,VWS V14.01,2013-04-24 22:28:00,
2013-04-24 15:33:00,79.2,22.2,29.03,WSW,258,13.9,14.8,12,0.00,,---,0.00,VWS V14.01,2013-04-24 22:33:00,
2013-04-24 15:38:00,78.8,22.0,29.03,West,266,8.3,13.4,12,0.00,,---,0.00,VWS V14.01,2013-04-24 22:38:00,
2013-04-24 15:43:00,78.6,21.8,29.03,WNW,303,11.0,13.4,12,0.00,,---,0.00,VWS V14.01,2013-04-24 22:43:00,
2013-04-24 15:48:00,79.0,22.1,29.03,West,274,11.6,15.2,12,0.00,,---,0.00,VWS V14.01,2013-04-24 22:48:00,
2013-04-24 15:53:00,78.1,21.4,29.03,WSW,256,11.6,12.5,12,0.00,,---,0.00,VWS V14.01,2013-04-24 22:53:00,
2013-04-24 15:58:00,78.3,21.5,29.03,West,265,13.9,13.9,12,0.00,,---,0.00,VWS V14.01,2013-04-24 22:58:00,
2013-04-24 16:03:00,77.7,23.0,29.03,West,264,5.8,11.2,13,0.00,,---,0.00,VWS V14.01,2013-04-24 23:03:00,
2013-04-24 16:08:00,77.4,22.7,29.03,West,261,9.2,13.0,13,0.00,,---,0.00,VWS V14.01,2013-04-24 23:08:00,
2013-04-24 16:13:00,76.5,22.0,29.03,WSW,258,6.7,13.4,13,0.00,,---,0.00,VWS V14.01,2013-04-24 23:13:00,
2013-04-24 16:18:00,76.6,22.1,29.03,WSW,254,11.0,11.2,13,0.00,,---,0.00,VWS V14.01,2013-04-24 23:18:00,
2013-04-24 16:23:00,76.6,22.1,29.03,NW,309,13.9,15.9,13,0.00,,---,0.00,VWS V14.01,2013-04-24 23:23:00,
2013-04-24 16:28:00,76.6,22.1,29.03,WSW,251,11.6,12.5,13,0.00,,---,0.00,VWS V14.01,2013-04-24 23:28:00,
2013-04-24 16:34:00,76.3,21.9,29.03,WSW,251,9.2,11.0,13,0.00,,---,0.00,VWS V14.01,2013-04-24 23:34:00,
2013-04-24 16:39:00,75.7,21.5,29.03,West,267,13.0,13.0,13,0.00,,---,0.00,VWS V14.01,2013-04-24 23:39:00,
2013-04-24 16:44:00,75.2,21.0,29.03,WSW,248,11.6,11.6,13,0.00,,---,0.00,VWS V14.01,2013-04-24 23:44:00,
2013-04-24 16:49:00,75.2,21.0,29.03,West,273,10.1,11.6,13,0.00,,---,0.00,VWS V14.01,2013-04-24 23:49:00,
2013-04-24 16:54:00,74.7,20.6,29.03,West,261,9.6,12.1,13,0.00,,---,0.00,VWS V14.01,2013-04-24 23:54:00,
2013-04-24 16:59:00,74.3,20.3,29.03,West,261,12.5,14.3,13,0.00,,---,0.00,VWS V14.01,2013-04-24 23:59:00,
2013-04-24 17:04:00,73.8,19.9,29.03,West,262,11.6,13.4,13,0.00,,---,0.00,VWS V14.01,2013-04-25 00:04:00,
2013-04-24 17:09:00,73.6,19.8,29.03,WSW,258,11.0,14.8,13,0.00,,---,0.00,VWS V14.01,2013-04-25 00:09:00,
2013-04-24 17:14:00,72.7,19.0,29.03,WSW,253,12.5,13.4,13,0.00,,---,0.00,VWS V14.01,2013-04-25 00:14:00,
2013-04-24 17:19:00,72.3,20.5,29.03,WSW,246,13.0,13.0,14,0.00,,---,0.00,VWS V14.01,2013-04-25 00:19:00,
2013-04-24 17:24:00,72.3,20.5,29.03,West,262,10.5,12.1,14,0.00,,---,0.00,VWS V14.01,2013-04-25 00:24:00,
2013-04-24 17:29:00,71.8,20.1,29.03,WSW,249,8.7,12.1,14,0.00,,---,0.00,VWS V14.01,2013-04-25 00:29:00,
2013-04-24 17:34:00,70.5,19.1,29.06,WSW,257,9.2,13.4,14,0.00,,---,0.00,VWS V14.01,2013-04-25 00:34:00,
2013-04-24 17:39:00,70.5,19.1,29.06,West,272,7.8,11.2,14,0.00,,---,0.00,VWS V14.01,2013-04-25 00:39:00,
2013-04-24 17:44:00,70.3,18.9,29.06,WSW,252,10.5,11.6,14,0.00,,---,0.00,VWS V14.01,2013-04-25 00:44:00,
2013-04-24 17:49:00,69.6,18.4,29.06,WSW,256,14.3,14.8,14,0.00,,---,0.00,VWS V14.01,2013-04-25 00:49:00,
2013-04-24 17:54:00,69.3,18.1,29.06,West,267,9.2,14.3,14,0.00,,---,0.00,VWS V14.01,2013-04-25 00:54:00,
2013-04-24 17:59:00,68.7,19.2,29.06,SW,219,9.2,13.0,15,0.00,,---,0.00,VWS V14.01,2013-04-25 00:59:00,
2013-04-24 18:04:00,68.4,19.0,29.06,West,272,11.2,12.1,15,0.00,,---,0.00,VWS V14.01,2013-04-25 01:04:00,
2013-04-24 18:09:00,68.0,18.7,29.06,West,279,10.1,12.5,15,0.00,,---,0.00,VWS V14.01,2013-04-25 01:09:00,
2013-04-24 18:14:00,67.5,18.2,29.06,WSW,255,13.4,14.3,15,0.00,,---,0.00,VWS V14.01,2013-04-25 01:14:00,
2013-04-24 18:19:00,66.6,17.5,29.06,WSW,258,9.2,14.3,15,0.00,,---,0.00,VWS V14.01,2013-04-25 01:19:00,
2013-04-24 18:24:00,65.8,16.9,29.06,West,271,7.8,11.2,15,0.00,,---,0.00,VWS V14.01,2013-04-25 01:24:00,
2013-04-24 18:29:00,65.5,16.6,29.06,WSW,254,13.4,14.8,15,0.00,,---,0.00,VWS V14.01,2013-04-25 01:29:00,
2013-04-24 18:34:00,64.8,16.1,29.06,West,260,11.6,15.2,15,0.00,,---,0.00,VWS V14.01,2013-04-25 01:34:00,
2013-04-24 18:39:00,64.4,15.8,29.06,West,264,12.5,14.3,15,0.00,,---,0.00,VWS V14.01,2013-04-25 01:39:00,
2013-04-24 18:44:00,64.0,15.5,29.06,WSW,256,9.6,10.5,15,0.00,,---,0.00,VWS V14.01,2013-04-25 01:44:00,
2013-04-24 18:49:00,63.7,15.2,29.06,WNW,282,14.3,14.3,15,0.00,,---,0.00,VWS V14.01,2013-04-25 01:49:00,
2013-04-24 18:54:00,63.7,15.2,29.06,WNW,282,14.3,14.3,15,0.00,,---,0.00,VWS V14.01,2013-04-25 01:54:00,
2013-04-24 18:59:00,63.7,15.2,29.06,WNW,282,14.3,14.3,15,0.00,,---,0.00,VWS V14.01,2013-04-25 01:59:00,
2013-04-24 19:04:00,63.7,15.2,29.06,WNW,282,14.3,14.3,15,0.00,,---,0.00,VWS V14.01,2013-04-25 02:04:00,
2013-04-24 19:09:00,63.7,15.2,29.06,WNW,282,14.3,14.3,15,0.00,,---,0.00,VWS V14.01,2013-04-25 02:09:00,
2013-04-24 19:14:00,63.7,15.2,29.06,WNW,282,14.3,14.3,15,0.00,,---,0.00,VWS V14.01,2013-04-25 02:14:00,
2013-04-24 19:19:00,61.0,18.5,29.09,WSW,249,9.2,9.6,19,0.00,,---,0.00,VWS V14.01,2013-04-25 02:19:00,
2013-04-24 19:24:00,60.6,18.2,29.09,WSW,253,9.6,11.2,19,0.00,,---,0.00,VWS V14.01,2013-04-25 02:24:00,
2013-04-24 19:29:00,60.1,17.7,29.09,WSW,257,6.9,8.7,19,0.00,,---,0.00,VWS V14.01,2013-04-25 02:29:00,
2013-04-24 19:34:00,59.5,17.3,29.09,West,272,7.8,9.2,19,0.00,,---,0.00,VWS V14.01,2013-04-25 02:34:00,
2013-04-24 19:39:00,59.0,20.2,29.09,West,264,8.7,9.6,22,0.00,,---,0.00,VWS V14.01,2013-04-25 02:39:00,
2013-04-24 19:44:00,58.5,21.8,29.09,West,266,11.6,11.6,24,0.00,,---,0.00,VWS V14.01,2013-04-25 02:44:00,
2013-04-24 19:49:00,58.5,21.8,29.09,West,266,11.6,11.6,24,0.00,,---,0.00,VWS V14.01,2013-04-25 02:49:00,
2013-04-24 19:54:00,58.5,21.8,29.09,West,266,11.6,11.6,24,0.00,,---,0.00,VWS V14.01,2013-04-25 02:54:00,
2013-04-24 19:59:00,58.5,21.8,29.09,West,266,11.6,11.6,24,0.00,,---,0.00,VWS V14.01,2013-04-25 02:59:00,
2013-04-24 20:04:00,58.3,21.7,29.09,West,262,9.6,9.6,24,0.00,,---,0.00,VWS V14.01,2013-04-25 03:04:00,
2013-04-24 20:09:00,55.9,23.3,29.09,West,259,10.1,12.1,28,0.00,,---,0.00,VWS V14.01,2013-04-25 03:09:00,
2013-04-24 20:14:00,55.8,24.0,29.09,West,264,8.3,10.5,29,0.00,,---,0.00,VWS V14.01,2013-04-25 03:14:00,
2013-04-24 20:19:00,55.4,25.3,29.12,WSW,244,6.7,11.0,31,0.00,,---,0.00,VWS V14.01,2013-04-25 03:19:00,
2013-04-24 20:24:00,55.2,25.9,29.12,WSW,249,10.5,10.5,32,0.00,,---,0.00,VWS V14.01,2013-04-25 03:24:00,
2013-04-24 20:29:00,54.9,26.3,29.12,West,264,9.6,9.6,33,0.00,,---,0.00,VWS V14.01,2013-04-25 03:29:00,
2013-04-24 20:34:00,54.7,26.9,29.12,West,267,6.7,8.3,34,0.00,,---,0.00,VWS V14.01,2013-04-25 03:34:00,
2013-04-24 20:39:00,54.5,27.4,29.12,WSW,247,5.8,9.6,35,0.00,,---,0.00,VWS V14.01,2013-04-25 03:39:00,
2013-04-24 20:44:00,54.3,28.0,29.12,WSW,243,7.4,7.4,36,0.00,,---,0.00,VWS V14.01,2013-04-25 03:44:00,
2013-04-24 20:49:00,54.1,27.8,29.12,West,261,7.4,9.6,36,0.00,,---,0.00,VWS V14.01,2013-04-25 03:49:00,
2013-04-24 20:54:00,54.0,28.3,29.12,WSW,243,7.8,9.2,37,0.00,,---,0.00,VWS V14.01,2013-04-25 03:54:00,
2013-04-24 20:59:00,53.8,28.1,29.12,WSW,238,9.6,9.6,37,0.00,,---,0.00,VWS V14.01,2013-04-25 03:59:00,
2013-04-24 21:01:00,53.8,28.1,29.12,WSW,249,6.7,7.8,37,0.00,,---,0.00,VWS V14.01,2013-04-25 04:01:00,
2013-04-24 21:03:00,53.6,28.0,29.15,WSW,256,9.2,9.2,37,0.00,,---,0.00,VWS V14.01,2013-04-25 04:03:00,
2013-04-24 21:04:00,53.6,28.0,29.15,WSW,258,8.7,9.6,37,0.00,,---,0.00,VWS V14.01,2013-04-25 04:04:00,
2013-04-24 21:06:00,53.6,28.6,29.15,WSW,242,7.4,9.2,38,0.00,,---,0.00,VWS V14.01,2013-04-25 04:06:00,
2013-04-24 21:10:00,53.4,28.5,29.15,WSW,255,7.4,10.1,38,0.00,,---,0.00,VWS V14.01,2013-04-25 04:10:00,
2013-04-24 21:15:00,53.2,28.3,29.15,WSW,250,6.9,7.4,38,0.00,,---,0.00,VWS V14.01,2013-04-25 04:15:00,
2013-04-24 21:20:00,53.1,28.8,29.15,WSW,248,8.7,10.5,39,0.00,,---,0.00,VWS V14.01,2013-04-25 04:20:00,
2013-04-24 21:25:00,53.1,29.4,29.15,WSW,246,8.3,9.2,40,0.00,,---,0.00,VWS V14.01,2013-04-25 04:25:00,
2013-04-24 21:30:00,52.9,29.2,29.15,SW,233,8.3,9.2,40,0.00,,---,0.00,VWS V14.01,2013-04-25 04:30:00,
2013-04-24 21:35:00,52.9,29.8,29.15,WSW,244,7.4,9.6,41,0.00,,---,0.00,VWS V14.01,2013-04-25 04:35:00,
2013-04-24 21:40:00,52.7,30.3,29.15,WSW,237,7.8,10.5,42,0.00,,---,0.00,VWS V14.01,2013-04-25 04:40:00,
2013-04-24 21:45:00,52.7,30.9,29.15,SW,232,8.3,11.2,43,0.00,,---,0.00,VWS V14.01,2013-04-25 04:45:00,
2013-04-24 21:50:00,52.5,30.7,29.15,WSW,253,6.9,10.5,43,0.00,,---,0.00,VWS V14.01,2013-04-25 04:50:00,
2013-04-24 21:55:00,52.3,30.5,29.15,WSW,247,10.1,10.1,43,0.00,,---,0.00,VWS V14.01,2013-04-25 04:55:00,
2013-04-24 22:01:00,52.3,31.1,29.15,WSW,253,7.8,9.2,44,0.00,,---,0.00,VWS V14.01,2013-04-25 05:01:00,
2013-04-24 22:06:00,52.2,31.5,29.18,WSW,250,8.7,9.2,45,0.00,,---,0.00,VWS V14.01,2013-04-25 05:06:00,
2013-04-24 22:11:00,52.0,31.9,29.18,SW,229,7.8,10.5,46,0.00,,---,0.00,VWS V14.01,2013-04-25 05:11:00,
2013-04-24 22:16:00,52.0,31.9,29.18,West,271,7.4,9.6,46,0.00,,---,0.00,VWS V14.01,2013-04-25 05:16:00,
2013-04-24 22:21:00,51.8,31.7,29.18,WSW,243,8.3,9.2,46,0.00,,---,0.00,VWS V14.01,2013-04-25 05:21:00,
2013-04-24 22:26:00,51.6,31.5,29.18,WSW,241,6.7,8.7,46,0.00,,---,0.00,VWS V14.01,2013-04-25 05:26:00,
2013-04-24 22:31:00,51.6,32.1,29.18,SW,228,7.8,9.6,47,0.00,,---,0.00,VWS V14.01,2013-04-25 05:31:00,
2013-04-24 22:36:00,51.6,32.1,29.18,West,261,8.3,11.2,47,0.00,,---,0.00,VWS V14.01,2013-04-25 05:36:00,
2013-04-24 22:41:00,51.8,32.2,29.18,WSW,243,9.6,11.0,47,0.00,,---,0.00,VWS V14.01,2013-04-25 05:41:00,
2013-04-24 22:46:00,51.6,32.1,29.18,WSW,251,9.6,9.6,47,0.00,,---,0.00,VWS V14.01,2013-04-25 05:46:00,
2013-04-24 22:51:00,51.6,32.6,29.18,WSW,252,10.5,10.5,48,0.00,,---,0.00,VWS V14.01,2013-04-25 05:51:00,
2013-04-24 22:56:00,51.8,33.3,29.18,WSW,253,5.4,9.2,49,0.00,,---,0.00,VWS V14.01,2013-04-25 05:56:00,
2013-04-24 23:01:00,51.6,32.6,29.18,West,267,6.9,7.8,48,0.00,,---,0.00,VWS V14.01,2013-04-25 06:01:00,
2013-04-24 23:06:00,51.6,33.1,29.18,West,269,8.3,11.0,49,0.00,,---,0.00,VWS V14.01,2013-04-25 06:06:00,
2013-04-24 23:11:00,51.4,32.9,29.18,WSW,251,9.2,10.1,49,0.00,,---,0.00,VWS V14.01,2013-04-25 06:11:00,
2013-04-24 23:16:00,51.4,33.4,29.18,West,259,6.7,7.4,50,0.00,,---,0.00,VWS V14.01,2013-04-25 06:16:00,
2013-04-24 23:21:00,51.4,33.9,29.18,WSW,256,8.3,11.0,51,0.00,,---,0.00,VWS V14.01,2013-04-25 06:21:00,
2013-04-24 23:26:00,51.4,33.9,29.18,WSW,238,7.8,9.6,51,0.00,,---,0.00,VWS V14.01,2013-04-25 06:26:00,
2013-04-24 23:31:00,51.3,33.8,29.18,WSW,250,6.9,7.4,51,0.00,,---,0.00,VWS V14.01,2013-04-25 06:31:00,
2013-04-24 23:36:00,51.1,34.1,29.18,West,279,9.2,9.2,52,0.00,,---,0.00,VWS V14.01,2013-04-25 06:36:00,
2013-04-24 23:41:00,51.1,34.1,29.18,West,261,6.3,7.4,52,0.00,,---,0.00,VWS V14.01,2013-04-25 06:41:00,
2013-04-24 23:46:00,50.9,34.4,29.18,WSW,256,6.3,6.9,53,0.00,,---,0.00,VWS V14.01,2013-04-25 06:46:00,
2013-04-24 23:51:00,51.1,35.0,29.18,SW,234,8.7,10.1,54,0.00,,---,0.00,VWS V14.01,2013-04-25 06:51:00,
2013-04-24 23:56:00,51.1,35.5,29.18,West,262,6.3,8.3,55,0.00,,---,0.00,VWS V14.01,2013-04-25 06:56:00,